[[{"header":{"parameterUnit":"m.s-1","parameterCategory":1,"la1":30.2992,"la2":30.254,"lo1":-89.0895,"lo2":-89.0443,"dy":0.0025,"dx":0.0025,"nx":19,"ny":19,"refTime":"2026-04-29T21:00:00:Z","depth":0,"parameterNumber":2,"parameterNumberName":"U-component_of_WINDS"},"data":[0,0,0,3.4056,3.4061,3.4307,3.4308,3.4602,3.4605,0,0,0,0,0,0,0,0,0,0,0,3.3973,3.3975,3.4056,3.4062,3.4307,3.4308,3.4602,3.4605,0,0,0,0,0,0,0,0,0,0,0,3.3972,3.3974,3.3977,3.4062,3.4307,3.4308,3.4601,3.4422,0,0,0,0,0,0,0,0,0,0,3.4187,3.4101,3.3974,3.3977,3.4064,3.4307,3.4309,3.4414,3.4434,3.4483,0,3.4526,0,3.457,3.4623,3.4624,0,0,0,3.4069,3.4085,3.416,3.3977,3.4066,3.4306,3.4198,3.4425,3.4447,3.4508,3.453,3.4541,3.4575,3.4625,3.4626,3.4887,3.4888,0,0,3.4055,3.4012,3.4145,3.4174,3.4137,3.419,3.4206,3.4439,3.4459,3.4531,3.4549,3.4579,3.4627,3.4629,3.4886,3.4887,0,0,0,3.4011,3.4002,3.4072,3.4162,3.4207,3.4197,3.4215,3.4449,3.4475,3.4552,3.4583,3.4628,3.4632,3.4885,3.4886,3.4886,0,0,0,3.4003,3.3977,3.4066,3.4042,3.4203,3.4332,3.4219,3.4459,3.4487,3.4581,3.4628,3.4634,3.4884,3.4886,3.4884,3.4892,0,0,0,3.3961,3.3972,3.4004,3.4039,3.4143,3.4329,3.4369,3.4466,3.4505,3.4624,3.4635,3.4884,3.4886,3.4882,3.489,3.4945,0,0,0,3.3902,3.4002,3.4003,3.4127,3.4141,3.4328,3.4368,3.451,3.4612,3.463,3.4884,3.4886,3.4882,3.4888,3.4943,3.4983,3.4996,0,0,3.4004,3.4013,3.4089,3.4097,3.4272,3.4294,3.4469,3.4604,3.4655,3.4806,3.4813,3.4885,3.489,3.4945,3.5089,3.5099,0,0,0,3.4106,3.416,3.4216,3.4311,3.4416,3.4505,3.4618,3.4667,3.4797,3.4724,3.4923,3.4927,3.4961,3.4982,3.499,3.5021,3.4895,3.4895,3.4894,3.4188,3.4246,3.4374,3.4461,3.4553,3.4666,3.4744,3.483,3.4864,3.4909,3.4954,3.5035,3.5057,3.5064,3.5095,3.4982,3.4982,3.4982,3.4982,3.4339,3.4423,3.4463,3.4601,3.4662,3.4778,3.4889,3.4908,3.5023,3.5007,3.504,3.5014,3.5073,3.5103,3.4983,3.4983,3.4982,3.4982,3.4982,3.4397,3.4447,3.4505,3.4645,3.4747,3.4832,3.4939,3.4991,3.504,3.5073,3.5123,3.5123,3.5127,3.5094,3.5094,3.5094,3.5095,3.5095,3.5095,3.4432,3.4498,3.4583,3.47,3.4765,3.4858,3.497,3.5036,3.5121,3.515,3.515,3.5176,3.507,3.5039,3.51,3.5099,3.5098,3.5098,3.5097,3.456,3.4539,3.4669,3.4735,3.4874,3.4968,3.5033,3.5161,3.5222,3.5272,3.5292,3.5205,3.5217,3.5211,3.5186,3.5281,3.5281,3.5281,3.5281,3.4606,3.4617,3.476,3.486,3.4965,3.5036,3.5177,3.5263,3.5349,3.539,3.5384,3.5356,3.5348,3.5365,3.5356,3.5333,3.5463,3.5463,3.5464,3.4685,3.4709,3.482,3.4905,3.5017,3.511,3.5243,3.5354,3.5448,3.5472,3.5422,3.5414,3.537,3.5354,3.5375,3.5359,3.5319,0,0]},{"header":{"parameterUnit":"m.s-1","parameterCategory":1,"la1":30.2992,"la2":30.254,"lo1":-89.0895,"lo2":-89.0443,"dy":0.0025,"dx":0.0025,"nx":19,"ny":19,"refTime":"2026-04-29T21:00:00:Z","depth":0,"parameterNumber":3,"parameterNumberName":"V-component_of_WINDS"},"data":[0,0,0,6.7873,6.7876,6.7998,6.7998,6.8167,6.8168,0,0,0,0,0,0,0,0,0,0,0,6.7849,6.785,6.7873,6.7876,6.7998,6.7998,6.8166,6.8168,0,0,0,0,0,0,0,0,0,0,0,6.7848,6.785,6.7852,6.7877,6.7997,6.7998,6.8166,6.8069,0,0,0,0,0,0,0,0,0,0,6.7948,6.7938,6.785,6.7852,6.7878,6.7997,6.7998,6.8064,6.8075,6.8119,0,6.8164,0,6.8169,6.8181,6.8182,0,0,0,6.7867,6.7929,6.7952,6.7852,6.7879,6.7997,6.794,6.807,6.8082,6.8133,6.8166,6.8172,6.8172,6.8182,6.8183,6.8472,6.8474,0,0,6.786,6.7876,6.7943,6.796,6.7946,6.7936,6.7944,6.8077,6.8112,6.8166,6.8175,6.8175,6.8183,6.8185,6.8471,6.8473,0,0,0,6.7847,6.7872,6.7891,6.7954,6.7975,6.794,6.7949,6.8106,6.8111,6.8177,6.8177,6.8184,6.8187,6.8469,6.8471,6.8575,0,0,0,6.7843,6.7865,6.7888,6.79,6.7973,6.8043,6.7976,6.8102,6.8117,6.8176,6.8185,6.8189,6.8467,6.847,6.8568,6.8621,0,0,0,6.7837,6.7864,6.7886,6.79,6.7953,6.804,6.8053,6.8105,6.8117,6.8182,6.8189,6.8465,6.8469,6.8562,6.861,6.87,0,0,0,6.7834,6.7977,6.7888,6.8046,6.7953,6.8105,6.8052,6.8164,6.8232,6.8185,6.8467,6.8471,6.856,6.8604,6.8693,6.8776,6.8814,0,0,6.8023,6.8,6.8091,6.8015,6.8188,6.8085,6.8272,6.8318,6.8309,6.8417,6.8424,6.857,6.8609,6.8698,6.9019,6.9049,0,0,0,6.8156,6.8222,6.8264,6.8331,6.8371,6.8407,6.8424,6.844,6.8532,6.8369,6.8627,6.865,6.8701,6.874,6.8766,6.8807,6.8491,6.849,6.849,6.8444,6.8425,6.8574,6.8569,6.8634,6.8649,6.8698,6.8722,6.8684,6.8745,6.8776,6.8974,6.902,6.9039,6.9083,6.8821,6.8821,6.8822,6.8822,6.8716,6.8804,6.875,6.8875,6.8852,6.8956,6.8974,6.8943,6.9033,6.8949,6.8993,6.8901,6.9072,6.9109,6.883,6.8828,6.8827,6.8827,6.8826,6.89,6.8939,6.8958,6.905,6.9123,6.9112,6.9202,6.9178,6.9157,6.92,6.9229,6.9227,6.922,6.9216,6.9217,6.9218,6.9218,6.9219,6.9219,6.9083,6.9101,6.9181,6.9234,6.9272,6.9319,6.9334,6.9369,6.9402,6.9378,6.9378,6.9331,6.9094,6.9033,6.923,6.9228,6.9226,6.9225,6.9225,6.9361,6.9294,6.9417,6.9456,6.9514,6.9586,6.9555,6.963,6.9656,6.97,6.9644,6.9474,6.9447,6.9427,6.9377,6.965,6.965,6.965,6.965,6.9515,6.95,6.9619,6.9681,6.9739,6.9724,6.9859,6.9871,6.9872,6.9886,6.9843,6.9775,6.9755,6.9741,6.9714,6.9666,7.0007,7.0007,7.0007,6.9683,6.9672,6.9794,6.9796,6.9839,6.9876,7.0001,7.0072,7.0059,7.0021,6.9895,6.988,6.977,6.9735,6.9692,6.9651,6.9563,0,0]}]]